FW5225 Weather Reports


time (UTC)temp
C
wind
direction
speed
KPH
gust
KPH
rain 1hr
cm
rain 24hr
cm
rain mn
cm
humidity
%
barometer
mb
20260503173041 29 78 1.6 14.5 0.00 0.00 0.00 25 1008.8
20260503172530 29 162 4.8 12.9 0.00 0.00 0.00 25 1008.8
20260503172031 28 107 4.8 12.9 0.00 0.00 0.00 26 1008.8
20260503171527 28 72 4.8 17.7 0.00 0.00 0.00 26 1008.9
20260503171029 28 86 3.2 17.7 0.00 0.00 0.00 27 1008.9
20260503170530 28 130 4.8 12.9 0.00 0.00 0.00 27 1008.9
20260503151004 25 50 3.2 12.9 0.00 0.00 0.00 31 1008.7
20260503150507 25 81 6.4 12.9 0.00 0.00 0.00 30 1008.7
20260503131042 25 56 6.4 14.5 0.00 0.00 0.00 29 1007.8
20260503130541 25 45 6.4 14.5 0.00 0.00 0.00 28 1007.8
20260503110535 25 54 4.8 9.7 0.00 0.00 0.00 24 1007.7
20260503081535 24 35 0.0 4.8 0.00 0.00 0.00 24 1007.9
20260503081019 24 17 0.0 6.4 0.00 0.00 0.00 23 1008.0
20260503080519 24 5 0.0 6.4 0.00 0.00 0.00 22 1008.1
20260503072519 24 125 3.2 11.3 0.00 0.00 0.00 23 1008.3
20260503072015 24 104 0.0 0.0 0.00 0.00 0.00 24 1008.1
20260503071514 24 33 0.0 0.0 0.00 0.00 0.00 25 1007.9
20260503071013 24 33 0.0 0.0 0.00 0.00 0.00 25 1007.9
20260503070512 24 33 0.0 0.0 0.00 0.00 0.00 26 1007.8
20260503055009 24 360 0.0 3.2 0.00 0.00 0.00 28 1007.5
20260503054515 25 37 0.0 3.2 0.00 0.00 0.00 28 1007.4
20260503054009 25 11 0.0 3.2 0.00 0.00 0.00 30 1007.5
20260503053509 25 344 0.0 3.2 0.00 0.00 0.00 25 1007.5
20260503053010 25 344 0.0 3.2 0.00 0.00 0.00 27 1007.6
20260503052509 25 344 0.0 0.0 0.00 0.00 0.00 28 1007.6
20260503052009 25 344 0.0 3.2 0.00 0.00 0.00 27 1007.5
20260503051517 25 344 0.0 3.2 0.00 0.00 0.00 27 1007.4
20260503051008 25 344 0.0 3.2 0.00 0.00 0.00 28 1007.4
20260503050508 25 355 0.0 3.2 0.00 0.00 0.00 29 1007.5
20260503050008 25 24 0.0 3.2 0.00 0.00 0.00 28 1007.5
20260503045507 25 10 0.0 0.0 0.00 0.00 0.00 32 1007.5
20260503045008 25 10 0.0 3.2 0.00 0.00 0.00 28 1007.6
20260503044508 25 10 0.0 3.2 0.00 0.00 0.00 27 1007.5
20260503044007 25 10 0.0 3.2 0.00 0.00 0.00 25 1007.6
20260503043508 25 10 0.0 3.2 0.00 0.00 0.00 31 1007.5
20260503043007 25 10 0.0 3.2 0.00 0.00 0.00 29 1007.4
20260503042507 25 33 0.0 3.2 0.00 0.00 0.00 31 1007.4
20260503042007 25 33 0.0 3.2 0.00 0.00 0.00 26 1007.3
20260503041506 25 37 0.0 3.2 0.00 0.00 0.00 28 1007.2
20260503041010 25 37 0.0 3.2 0.00 0.00 0.00 30 1007.2
20260503040506 25 37 1.6 3.2 0.00 0.00 0.00 29 1007.1
20260503040006 25 28 0.0 3.2 0.00 0.00 0.00 31 1007.1
20260503035505 26 37 0.0 3.2 0.00 0.00 0.00 25 1006.9
20260503035005 26 40 1.6 3.2 0.00 0.00 0.00 28 1006.8
20260503034506 26 36 0.0 3.2 0.00 0.00 0.00 26 1006.9
20260503034004 27 28 0.0 1.6 0.00 0.00 0.00 27 1006.8
20260503033507 27 42 0.0 1.6 0.00 0.00 0.00 19 1006.8
20260503033010 27 42 0.0 1.6 0.00 0.00 0.00 21 1006.7
20260503032506 27 42 0.0 3.2 0.00 0.00 0.00 21 1006.7
20260503032004 27 32 0.0 3.2 0.00 0.00 0.00 23 1006.7
20260503031504 28 13 0.0 4.8 0.00 0.00 0.00 21 1006.5
20260503031004 28 5 0.0 4.8 0.00 0.00 0.00 21 1006.5
20260503030505 28 360 0.0 4.8 0.00 0.00 0.00 20 1006.4
20260503030007 28 28 1.6 4.8 0.00 0.00 0.00 18 1006.3
20260503025503 28 39 1.6 3.2 0.00 0.00 0.00 18 1006.4
20260503025003 28 35 1.6 3.2 0.00 0.00 0.00 18 1006.4
20260503024503 28 9 0.0 3.2 0.00 0.00 0.00 20 1006.3
20260503024003 28 16 0.0 3.2 0.00 0.00 0.00 18 1006.3
20260503023503 28 13 0.0 3.2 0.00 0.00 0.00 20 1006.3
20260503023002 29 13 0.0 4.8 0.00 0.00 0.00 19 1006.3
20260503022502 29 360 0.0 4.8 0.00 0.00 0.00 18 1006.3
20260503022002 29 27 0.0 4.8 0.00 0.00 0.00 17 1006.3
20260503021502 29 21 1.6 4.8 0.00 0.00 0.00 18 1006.3
20260503021002 30 20 1.6 8.0 0.00 0.00 0.00 17 1006.3
20260503020502 30 13 1.6 8.0 0.00 0.00 0.00 17 1006.2
20260503020002 30 5 4.8 8.0 0.00 0.00 0.00 16 1006.3
20260503015500 30 29 3.2 8.0 0.00 0.00 0.00 19 1006.3
20260503015001 30 34 3.2 6.4 0.00 0.00 0.00 17 1006.3
20260503014501 30 32 1.6 6.4 0.00 0.00 0.00 18 1006.4
20260503014101 30 18 0.0 6.4 0.00 0.00 0.00 16 1006.4
20260503013600 30 59 1.6 6.4 0.00 0.00 0.00 16 1006.3
20260503013059 30 42 3.2 8.0 0.00 0.00 0.00 16 1006.3
20260503012559 31 37 3.2 8.0 0.00 0.00 0.00 16 1006.4
20260503012059 31 57 3.2 8.0 0.00 0.00 0.00 15 1006.4
20260503011604 31 46 3.2 8.0 0.00 0.00 0.00 17 1006.4
20260503011101 31 27 1.6 8.0 0.00 0.00 0.00 16 1006.4
20260503010558 31 5 1.6 6.4 0.00 0.00 0.00 18 1006.4
20260503010108 31 5 1.6 4.8 0.00 0.00 0.00 16 1006.4
20260503005559 31 23 0.0 8.0 0.00 0.00 0.00 16 1006.5
20260503005057 31 30 1.6 8.0 0.00 0.00 0.00 15 1006.6
20260503004557 32 24 4.8 8.0 0.00 0.00 0.00 16 1006.5
20260503004056 32 15 1.6 14.5 0.00 0.00 0.00 15 1006.6
20260503003555 32 148 0.0 14.5 0.00 0.00 0.00 15 1006.6
20260503003113 32 32 1.6 16.1 0.00 0.00 0.00 14 1006.6
20260503002555 32 325 1.6 17.7 0.00 0.00 0.00 15 1006.7
20260503002055 32 58 8.0 17.7 0.00 0.00 0.00 14 1006.6
20260503001555 33 61 6.4 12.9 0.00 0.00 0.00 14 1006.7
20260503001058 33 105 1.6 4.8 0.00 0.00 0.00 13 1006.7
20260503000554 33 35 0.0 4.8 0.00 0.00 0.00 15 1006.6
20260503000056 32 333 0.0 8.0 0.00 0.00 0.00 15 1006.6
20260502235554 32 45 4.8 8.0 0.00 0.00 0.00 14 1006.6
20260502235054 32 98 0.0 8.0 0.00 0.00 0.00 13 1006.7
20260502234554 33 15 1.6 8.0 0.00 0.00 0.00 14 1006.6
20260502234054 33 307 1.6 11.3 0.00 0.00 0.00 14 1006.7
20260502233554 32 42 3.2 11.3 0.00 0.00 0.00 16 1006.6
20260502233053 32 15 0.0 8.0 0.00 0.00 0.00 15 1006.6
20260502232552 32 350 3.2 8.0 0.00 0.00 0.00 14 1006.7
20260502232053 32 5 3.2 12.9 0.00 0.00 0.00 14 1006.7
20260502231554 32 5 6.4 12.9 0.00 0.00 0.00 15 1006.7
20260502231053 33 336 4.8 12.9 0.00 0.00 0.00 14 1006.7
20260502230555 33 5 6.4 12.9 0.00 0.00 0.00 15 1006.8
20260502230051 33 261 1.6 6.4 0.00 0.00 0.00 13 1006.9
20260502225550 33 286 0.0 9.7 0.00 0.00 0.00 14 1007.0
20260502225050 33 294 4.8 9.7 0.00 0.00 0.00 13 1007.0
20260502224550 33 311 0.0 14.5 0.00 0.00 0.00 14 1007.1
20260502224049 33 111 3.2 14.5 0.00 0.00 0.00 13 1007.1
20260502223548 33 136 1.6 12.9 0.00 0.00 0.00 13 1007.2
20260502223047 32 150 3.2 12.9 0.00 0.00 0.00 15 1007.4
20260502222548 33 316 8.0 12.9 0.00 0.00 0.00 14 1007.4
20260502222045 33 49 4.8 12.9 0.00 0.00 0.00 13 1007.6
20260502221545 33 42 6.4 11.3 0.00 0.00 0.00 12 1007.6
20260502221044 33 61 1.6 11.3 0.00 0.00 0.00 13 1007.7
20260502220544 33 53 1.6 12.9 0.00 0.00 0.00 14 1007.8
20260502220044 33 82 3.2 12.9 0.00 0.00 0.00 14 1007.9
20260502215544 33 173 1.6 14.5 0.00 0.00 0.00 13 1008.0
20260502215048 33 82 3.2 14.5 0.00 0.00 0.00 13 1008.1
20260502214547 33 51 3.2 12.9 0.00 0.00 0.00 13 1008.2
20260502214044 33 68 3.2 12.9 0.00 0.00 0.00 13 1008.3
20260502213543 34 168 4.8 19.3 0.00 0.00 0.00 12 1008.4
20260502213046 34 173 3.2 14.5 0.00 0.00 0.00 12 1008.4
20260502212543 35 118 1.6 8.0 0.00 0.00 0.00 12 1008.5
20260502212043 35 304 3.2 8.0 0.00 0.00 0.00 12 1008.5
20260502211542 34 78 0.0 8.0 0.00 0.00 0.00 13 1008.6
20260502211042 34 122 0.0 8.0 0.00 0.00 0.00 12 1008.6
20260502210540 34 267 3.2 9.7 0.00 0.00 0.00 12 1008.7
20260502210039 33 227 1.6 9.7 0.00 0.00 0.00 12 1008.7
20260502205540 33 154 1.6 14.5 0.00 0.00 0.00 13 1008.8
20260502205037 32 132 1.6 14.5 0.00 0.00 0.00 16 1008.9
20260502204538 32 355 0.0 12.9 0.00 0.00 0.00 17 1008.9
20260502204037 33 94 1.6 6.4 0.00 0.00 0.00 14 1009.0
20260502203536 32 327 0.0 6.4 0.00 0.00 0.00 16 1008.9
20260502203050 32 327 1.6 17.7 0.00 0.00 0.00 14 1009.0
20260502202540 32 214 6.4 17.7 0.00 0.00 0.00 13 1009.3
20260502202036 33 72 4.8 14.5 0.00 0.00 0.00 14 1009.3
20260502201535 33 129 4.8 12.9 0.00 0.00 0.00 15 1009.3
20260502201038 32 126 3.2 9.7 0.00 0.00 0.00 17 1009.3
20260502200534 32 69 0.0 8.0 0.00 0.00 0.00 16 1009.4
20260502200032 32 81 3.2 9.7 0.00 0.00 0.00 16 1009.4
20260502195530 32 156 4.8 11.3 0.00 0.00 0.00 18 1009.6
20260502195030 31 19 3.2 16.1 0.00 0.00 0.00 19 1009.5
20260502194533 32 105 8.0 16.1 0.00 0.00 0.00 18 1009.7
20260502194030 32 82 4.8 16.1 0.00 0.00 0.00 19 1009.8
20260502193529 32 75 6.4 16.1 0.00 0.00 0.00 20 1009.8
20260502193029 32 219 3.2 8.0 0.00 0.00 0.00 21 1009.9
20260502192528 31 119 0.0 14.5 0.00 0.00 0.00 21 1010.0
20260502192029 31 88 3.2 19.3 0.00 0.00 0.00 21 1010.1
20260502191525 31 120 4.8 19.3 0.00 0.00 0.00 22 1010.2
20260502191025 31 61 8.0 19.3 0.00 0.00 0.00 21 1010.3
20260502190525 31 38 1.6 11.3 0.00 0.00 0.00 22 1010.3
20260502190024 31 112 3.2 19.3 0.00 0.00 0.00 22 1010.5
20260502185523 31 80 4.8 19.3 0.00 0.00 0.00 23 1010.5
20260502185023 31 123 4.8 14.5 0.00 0.00 0.00 22 1010.6
20260502184525 31 198 1.6 9.7 0.00 0.00 0.00 22 1010.8
20260502184020 31 88 4.8 12.9 0.00 0.00 0.00 23 1010.8
20260502183519 31 85 4.8 12.9 0.00 0.00 0.00 23 1010.8
20260502183018 30 82 1.6 14.5 0.00 0.00 0.00 23 1011.0
20260502182520 30 165 6.4 14.5 0.00 0.00 0.00 23 1011.0
20260502182016 30 67 4.8 12.9 0.00 0.00 0.00 24 1011.1
20260502181514 30 92 3.2 14.5 0.00 0.00 0.00 25 1011.1
20260502181014 30 154 4.8 16.1 0.00 0.00 0.00 25 1011.2
20260502180513 30 171 4.8 16.1 0.00 0.00 0.00 25 1011.3